This demonstration page uses our WeatherBlox Daily Observations layout. Learn more.

Left ArrowRight Arrow

39.08367, -84.50855

Hourly Observations for May 12, 2020

Temp ( °F °C ) Dew Point ( °F °C ) Humidity (%) Winds ( mph kmh ) Pressure ( in mb ) Visibility ( mi km ) Precip ( " mm )
12:53 am 00:53 Cloudy 43 6.1 39 3.9 86 86 Calm 30.24 1024 10 16.0934 0 0
1:53 am 01:53 Cloudy 43 6.1 38 3.3 82 82 Calm 30.24 1024 10 16.0934 0 0
2:53 am 02:53 Cloudy 42 5.6 38 3.3 85 85 Calm 30.24 1024 10 16.0934 0 0
3:53 am 03:53 Cloudy 41 5 38 3.3 89 89 Calm 30.24 1024 10 16.0934 0 0
4:53 am 04:53 Mostly Cloudy 37 2.8 36 2.2 96 96 Calm 30.25 1024 9 14.48406 0 0
5:53 am 05:53 Clear with Mist and Fog 36 2.2 35 1.7 97 97 Calm 30.26 1025 2.5 4.02335 0 0
6:05 am 06:05 Clear with Mist and Fog 36 2.2 35 1.7 97 97 Calm 30.28 1026 5 8.0467 0 0
6:53 am 06:53 Mostly Sunny 36 2.2 35 1.7 97 97 Calm 30.28 1025 10 16.0934 0 0
6:56 am 06:56 Sunny 36 2.2 35 1.7 97 97 Calm 30.3 1026 1.5 2.41401 0 0
7:03 am 07:03 Mostly Sunny 36 2.2 35 1.7 97 97 Calm 30.3 1026 10 16.0934 0 0
7:53 am 07:53 Sunny 41 5 39 3.9 93 93 Calm 30.3 1026 10 16.0934 0 0
8:53 am 08:53 Sunny 45 7.2 40 4.4 83 83 VRB 3 6 30.31 1026 10 16.0934 0 0
9:53 am 09:53 Sunny 51 10.6 35 1.7 54 54 S 5 7 30.31 1026 10 16.0934 0 0
10:53 am 10:53 Mostly Cloudy 52 11.1 33 0.6 49 49 VRB 5 7 30.3 1026 10 16.0934 0 0
11:53 am 11:53 Cloudy 54 12.2 32 0 43 43 VRB 5 7 30.29 1026 10 16.0934 0 0
12:53 pm 12:53 Mostly Cloudy 56 13.3 32 0 40 40 Calm 30.28 1025 10 16.0934 0 0
1:53 pm 13:53 Mostly Cloudy 57 13.9 32 0 39 39 W 7 11 30.27 1025 10 16.0934 0 0
2:53 pm 14:53 Mostly Cloudy 60 15.6 34 1.1 38 38 SW 9 15 30.26 1025 10 16.0934 0 0
3:53 pm 15:53 Mostly Cloudy 59 15 34 1.1 39 39 W 13 20 30.24 1024 10 16.0934 0 0
4:53 pm 16:53 Mostly Cloudy 61 16.1 34 1.1 36 36 VRB 5 7 30.24 1024 10 16.0934 0 0
5:53 pm 17:53 Mostly Cloudy 61 16.1 36 2.2 39 39 WSW 9 15 30.23 1024 10 16.0934 0 0
6:53 pm 18:53 Partly Cloudy 59 15 35 1.7 41 41 WNW 3 6 30.23 1024 10 16.0934 0 0
7:53 pm 19:53 Mostly Cloudy 58 14.4 32 0 38 38 WNW 8 13 30.23 1024 10 16.0934 0 0
8:53 pm 20:53 Mostly Clear 51 10.6 38 3.3 61 61 Calm 30.23 1024 10 16.0934 0 0
9:53 pm 21:53 Clear 46 7.8 39 3.9 77 77 Calm 30.24 1024 10 16.0934 0 0
10:53 pm 22:53 Clear 45 7.2 39 3.9 80 80 Calm 30.24 1024 10 16.0934 0 0
11:53 pm 23:53 Clear 42 5.6 39 3.9 89 89 Calm 30.26 1025 10 16.0934 0 0

Powered by AerisWeather